Coolangatta Observation History
Time Wind Speed Temp Pressure Rel. Hum Rain
24/02:30am WSW 5-6 kts 8.9°c 1018.3 hPa 96% 0.0mm
24/02:00am WSW 5-6 kts 9.3°c 1018.5 hPa 96% 0.0mm
24/01:30am WSW 4 kts 9.8°c 1018.8 hPa 96% 0.0mm
24/01:00am WSW 3-4 kts 10.1°c 1019.0 hPa 96% 0.0mm
24/12:30am WSW 4-5 kts 9.8°c 1019.0 hPa 96% 0.0mm
24/12:00am WSW 4-5 kts 9.8°c 1019.0 hPa 95% 0.0mm
Time Wind Speed Temp Pressure Rel. Hum Rain
23/11:30pm WSW 4-5 kts 9.7°c 1019.1 hPa 95% 0.0mm
23/11:00pm CALM 0 kts 9.6°c 1019.3 hPa 92% 0.0mm
23/10:30pm CALM 0 kts 10.3°c 1019.3 hPa 92% 0.0mm
23/10:00pm WSW 3-4 kts 10.3°c 1019.5 hPa 91% 0.0mm
23/09:30pm WSW 4-5 kts 10.4°c 1019.5 hPa 88% 0.0mm
23/09:00pm WSW 3-4 kts 11.4°c 1019.2 hPa 88% 0.0mm
23/08:30pm WSW 5-6 kts 11.8°c 1019.2 hPa 87% 0.0mm
23/08:00pm WSW 5-6 kts 11.8°c 1019.1 hPa 83% 0.0mm
23/07:30pm WSW 5-7 kts 12.9°c 1019.1 hPa 78% 0.0mm
23/07:00pm N 8-11 kts 16.9°c 1018.9 hPa 62% 0.0mm
23/06:30pm N 9-11 kts 17.4°c 1018.6 hPa 59% 0.0mm
23/06:00pm N 7-9 kts 16.8°c 1018.5 hPa 61% 0.0mm
23/05:30pm N 6-7 kts 17.5°c 1018.2 hPa 57% 0.0mm
23/05:00pm NNE 7-9 kts 18.2°c 1018.0 hPa 55% 0.0mm
23/04:30pm NNE 9-10 kts 19.1°c 1018.0 hPa 52% 0.0mm
23/04:00pm NNE 10-13 kts 19.1°c 1017.9 hPa 51% 0.0mm
23/03:30pm NNE 10-13 kts 19.9°c 1017.8 hPa 49% 0.0mm
23/03:00pm NNE 10-12 kts 19.5°c 1017.7 hPa 52% 0.0mm
23/02:30pm NNE 10-12 kts 19.2°c 1017.9 hPa 50% 0.0mm
23/02:00pm NNE 10-13 kts 19.5°c 1018.0 hPa 47% 0.0mm
23/01:30pm NE 10-13 kts 20.3°c 1018.3 hPa 51% 0.0mm
23/01:00pm NE 9-12 kts 20.0°c 1018.7 hPa 53% 0.0mm
23/12:30pm NE 9-12 kts 20.3°c 1019.2 hPa 55% 0.0mm
23/12:00pm NNE 8-11 kts 20.0°c 1019.9 hPa 48% 0.0mm
23/11:30am NNE 6-9 kts 20.3°c 1020.5 hPa 46% 0.0mm
23/11:00am NNE 7-9 kts 20.2°c 1021.0 hPa 49% 0.0mm
23/10:30am NNE 6-7 kts 20.0°c 1021.5 hPa 46% 0.0mm
23/10:00am ESE 1-4 kts 19.8°c 1021.8 hPa 49% 0.0mm
23/09:30am CALM 0-3 kts 18.2°c 1022.2 hPa 52% 0.0mm
23/09:00am SSW 3-4 kts 16.6°c 1022.3 hPa 68% 0.0mm
23/08:30am SSW 2-3 kts 14.1°c 1022.0 hPa 82% 0.0mm
23/08:00am SW 3 kts 11.3°c 1021.9 hPa 94% 0.0mm
23/07:30am SW 2-3 kts 9.7°c 1021.7 hPa 98% 0.0mm
23/07:00am SW 3-4 kts 8.5°c 1021.6 hPa 98% 0.0mm
23/06:30am CALM 0 kts 8.1°c 1021.4 hPa 98% 0.0mm
23/06:00am SSW 4 kts 8.2°c 1021.0 hPa 98% 0.0mm
23/05:30am SW 3-4 kts 7.9°c 1020.7 hPa 98% 0.0mm
23/05:27am SW 3-4 kts 8.0°c 1020.6 hPa 98% 0.0mm
23/05:08am SSW 3-4 kts 7.0°c 1020.5 hPa 97% 0.0mm
23/05:00am SSW 3-4 kts 7.4°c 1020.4 hPa 97% 0.0mm
23/04:30am SSW 3-4 kts 8.2°c 1020.4 hPa 98% 0.0mm
23/04:00am SW 3-4 kts 8.2°c 1020.3 hPa 97% 0.0mm
23/03:30am SW 3-4 kts 7.7°c 1020.4 hPa 97% 0.0mm
23/03:00am SSW 3-4 kts 7.5°c 1020.5 hPa 96% 0.0mm
23/02:30am SW 3-4 kts 8.2°c 1020.6 hPa 96% 0.0mm
23/02:00am SW 4-5 kts 8.3°c 1020.8 hPa 95% 0.0mm
23/01:30am SSW 4 kts 8.6°c 1021.1 hPa 96% 0.0mm
23/01:00am SSW 3-4 kts 8.5°c 1021.4 hPa 95% 0.0mm
23/12:30am SSW 3-4 kts 8.4°c 1021.5 hPa 94% 0.0mm
23/12:00am SSW 3-4 kts 8.2°c 1021.7 hPa 94% 0.0mm
Time Wind Speed Temp Pressure Rel. Hum Rain
22/11:30pm SSW 3-4 kts 9.0°c 1021.7 hPa 93% 0.0mm
22/11:00pm SSW 3-4 kts 9.4°c 1021.8 hPa 92% 0.0mm
22/10:30pm SSW 3-4 kts 8.9°c 1021.9 hPa 89% 0.0mm
22/10:00pm SSW 3-4 kts 9.4°c 1021.9 hPa 87% 0.0mm
22/09:30pm SW 4-6 kts 10.0°c 1022.0 hPa 86% 0.0mm
22/09:00pm SW 5-6 kts 10.2°c 1022.1 hPa 86% 0.0mm
22/08:30pm SW 5-6 kts 10.3°c 1022.2 hPa 84% 0.0mm
22/08:00pm SW 5-6 kts 10.7°c 1022.0 hPa 83% 0.0mm
22/07:30pm SW 5-7 kts 10.9°c 1022.0 hPa 78% 0.0mm
22/07:00pm SW 4-6 kts 11.1°c 1021.8 hPa 77% 0.0mm
22/06:30pm WSW 6-7 kts 12.1°c 1021.5 hPa 78% 0.0mm
22/06:00pm SW 4-5 kts 12.4°c 1021.4 hPa 74% 0.0mm
22/05:30pm S 4-5 kts 14.1°c 1021.1 hPa 62% 0.0mm
22/05:00pm SE 6-8 kts 15.7°c 1021.0 hPa 56% 0.0mm
22/04:30pm SE 8-12 kts 17.3°c 1020.8 hPa 52% 0.0mm
22/04:00pm SE 9-11 kts 17.9°c 1020.8 hPa 48% 0.0mm
22/03:30pm ESE 10-13 kts 18.3°c 1020.7 hPa 45% 0.0mm
22/03:00pm ESE 10-13 kts 18.7°c 1020.7 hPa 44% 0.0mm
22/02:30pm ESE 9-13 kts 19.2°c 1020.8 hPa 41% 0.0mm
22/02:00pm ESE 9-13 kts 19.6°c 1021.0 hPa 37% 0.0mm
22/01:30pm ESE 10-13 kts 19.1°c 1021.3 hPa 38% 0.0mm
22/01:00pm SE 9-13 kts 19.7°c 1021.5 hPa 37% 0.0mm
22/12:30pm SSE 8-13 kts 18.8°c 1021.9 hPa 38% 0.0mm
22/12:00pm SSE 8-11 kts 19.9°c 1022.3 hPa 39% 0.0mm
22/11:30am SSE 8-12 kts 18.4°c 1022.9 hPa 45% 0.0mm
22/11:00am S 10-14 kts 18.3°c 1023.5 hPa 48% 0.0mm
22/10:30am SSW 10-15 kts 17.8°c 1023.8 hPa 47% 0.0mm
22/10:00am S 9-14 kts 18.0°c 1024.0 hPa 49% 0.0mm
22/09:30am S 9-13 kts 17.4°c 1024.2 hPa 50% 0.0mm
22/09:00am SSW 8-12 kts 16.4°c 1024.2 hPa 54% 0.0mm
22/08:30am SSW 7-10 kts 15.5°c 1023.9 hPa 59% 0.0mm
22/08:00am S 5-6 kts 13.2°c 1023.8 hPa 80% 0.0mm
22/07:30am SSW 2-4 kts 10.2°c 1023.7 hPa 81% 0.0mm
22/07:00am SSE 1-4 kts 9.2°c 1023.6 hPa 89% 0.0mm
22/06:30am SSE 4-5 kts 8.7°c 1023.2 hPa 93% 0.0mm
22/06:00am SSE 4-5 kts 6.7°c 1023.1 hPa 90% 0.0mm
22/05:30am S 3-4 kts 7.9°c 1022.8 hPa 90% 0.0mm
22/05:00am SSW 3-4 kts 8.5°c 1022.6 hPa 86% 0.0mm
22/04:30am SW 4-5 kts 9.0°c 1022.5 hPa 87% 0.0mm
22/04:00am SSW 3-4 kts 8.2°c 1022.4 hPa 93% 0.0mm
22/03:30am SW 4-5 kts 6.6°c 1022.4 hPa 90% 0.0mm
22/03:00am SSW 3-4 kts 7.2°c 1022.5 hPa 89% 0.0mm
22/02:30am S 3-4 kts 7.8°c 1022.7 hPa 86% 0.0mm
22/02:00am SW 4-5 kts 8.5°c 1022.8 hPa 82% 0.0mm
22/01:30am SW 4-5 kts 8.3°c 1022.9 hPa 81% 0.0mm
22/01:00am SW 4-5 kts 7.4°c 1023.0 hPa 89% 0.0mm
22/12:30am SW 5-6 kts 7.0°c 1023.0 hPa 88% 0.0mm
22/12:00am SSW 4-5 kts 6.5°c 1023.2 hPa 87% 0.0mm